Helicity
19 14 4 8 15 31 37 44 58 54 40 18 3 19 32 41 30 -47 25 20 1 -7 2 28 73 92 135 201 236 226 322 335 494 425 480 286 293 197 152 149 149 128 160 88 103
20 11 3 -1 25 28 32 38 48 58 38 -5 3 16 40 87 47 26 34 7 -6 -3 25 40 51 102 172 207 243 283 313 449 382 303 311 189 161 139 104 107 103 126 86 106 44
15 4 -5 -10 -4 11 19 37 49 49 13 -15 1 -5 53 62 49 42 42 -11 -10 -14 30 43 57 121 188 205 251 297 352 348 276 178 135 119 83 89 62 66 41 78 112 95 76
12 1 -10 -18 -10 -2 15 27 38 33 50 52 27 17 22 13 53 43 3 -17 7 20 60 87 98 100 151 188 211 267 297 249 193 141 106 96 80 50 28 4 52 71 44 31 77
10 -2 -11 -24 -26 -1 15 18 27 15 19 9 11 34 25 16 27 34 -9 19 38 53 117 91 167 118 136 183 205 283 215 121 87 76 77 72 45 45 29 23 37 81 56 58 67
6 -11 -18 -31 -38 -14 11 10 30 20 13 7 19 47 -27 24 27 7 3 41 70 70 124 164 92 114 193 199 224 163 109 70 82 67 67 88 56 80 101 56 70 88 65 66 68
2 -23 -35 -35 -52 -14 25 35 39 21 17 16 41 66 48 16 66 14 25 50 48 55 115 89 103 98 118 180 148 141 193 101 91 72 73 69 19 26 56 69 61 60 69 65 92
3 -16 -42 -39 -67 16 44 58 63 65 -1 13 64 53 43 29 36 31 40 65 64 79 93 64 43 128 139 134 200 236 190 245 95 51 93 84 58 11 112 64 61 87 103 88 84
4 -16 -42 -32 -47 26 54 85 95 49 -13 -37 37 60 29 70 44 22 36 52 37 93 117 76 84 146 114 183 262 273 269 177 63 84 75 82 65 33 57 70 77 93 104 101 101
2 -15 -26 -26 -20 36 87 111 77 52 -20 21 31 80 72 34 27 48 51 57 34 51 100 112 134 153 195 231 247 240 268 146 67 87 114 68 46 64 124 49 50 42 51 60 74
1 -13 -3 -6 -5 10 35 70 85 80 161 26 37 17 34 6 49 41 19 21 50 73 16 94 114 88 153 186 213 189 178 125 58 94 39 87 50 54 57 72 38 40 60 70 54
0 -15 -27 4 14 35 66 80 90 129 117 -50 26 36 32 35 54 48 15 68 68 16 -39 -11 97 130 157 193 154 178 146 143 64 102 36 64 57 -2 79 60 49 25 15 37 20
-5 -15 -26 24 21 36 83 107 80 75 62 49 63 58 37 61 79 42 29 30 66 30 19 47 116 122 189 236 190 148 246 101 61 16 96 30 25 62 68 32 61 15 11 -20 -67
-13 -20 -12 30 46 51 69 86 55 38 75 76 90 87 69 86 132 68 64 28 73 47 27 117 143 159 174 231 225 218 162 63 63 61 92 58 41 68 85 33 40 54 16 -36 -117
-17 -14 21 23 75 52 83 65 42 40 45 105 135 84 94 89 62 104 51 68 92 32 -12 71 89 150 168 217 209 279 62 79 82 89 70 80 19 39 99 51 47 65 12 -42 -112
-6 3 21 36 30 48 53 52 38 41 61 105 147 113 105 98 93 44 59 45 66 38 60 72 119 176 216 118 215 119 114 154 125 79 77 176 57 -5 122 103 75 112 85 -24 -58
21 51 1 11 41 46 47 57 34 36 111 92 142 114 110 97 102 75 87 67 -27 7 73 8 148 247 195 216 226 166 171 346 295 108 95 224 24 53 131 133 143 166 117 -24 -58
26 35 20 15 26 39 43 32 70 85 66 117 128 98 125 87 148 97 99 107 97 3 29 95 147 256 245 266 291 283 226 367 374 186 132 15 102 142 163 200 215 145 37 -31 -37
22 28 29 20 34 35 23 61 46 61 71 52 66 70 132 144 118 121 147 109 101 81 72 107 141 230 281 270 226 343 346 204 217 151 128 124 241 104 261 217 197 112 12 35 11
20 29 40 18 34 27 46 45 41 50 65 65 36 94 115 133 126 149 135 168 142 140 165 283 133 275 297 272 266 253 197 367 244 197 162 251 146 148 200 217 87 59 72 106 91
28 31 44 33 26 47 56 47 46 61 57 58 68 85 117 130 160 142 147 171 167 177 209 300 261 324 233 339 293 359 355 291 215 183 219 233 207 217 195 184 -37 88 152 156 115
35 35 43 25 60 52 47 48 54 61 65 65 87 102 110 146 143 146 173 172 222 195 150 278 263 321 219 274 322 287 344 279 341 314 173 294 489 210 208 69 136 164 229 222 239
45 52 48 27 77 55 52 50 48 56 42 54 70 100 153 129 119 182 179 217 223 197 212 259 250 197 357 377 378 326 354 278 234 225 196 323 511 327 198 153 191 235 289 284 298
46 62 67 75 48 64 55 44 48 57 52 82 97 144 153 144 154 175 212 221 225 207 264 310 284 290 269 198 178 93 94 131 246 362 242 400 498 340 174 195 261 341 365 344 342
54 68 55 74 63 72 60 56 57 34 58 79 90 118 150 149 197 191 234 192 217 218 289 300 321 313 289 123 91 65 103 180 256 202 342 330 215 255 247 288 383 438 342 351 364
60 71 69 87 75 64 51 42 45 58 78 78 95 164 178 164 183 230 265 225 170 220 242 298 294 383 251 335 304 143 217 318 247 306 349 284 315 224 273 385 420 368 305 425 356
62 60 66 75 75 52 50 62 53 75 69 91 117 151 134 115 156 178 194 157 160 157 214 232 272 271 234 271 187 309 378 424 299 302 229 283 304 285 326 372 384 348 416 447 363
Wind_Speed
31 35 38 45 49 51 52 51 48 41 37 37 41 42 37 38 60 75 79 77 69 75 66 64 56 51 48 49 49 43 57 69 70 73 71 67 76 63 65 74 71 69 78 72 81
33 37 42 46 49 51 52 53 53 50 45 41 41 41 31 34 39 77 77 82 69 71 61 64 59 56 55 56 55 53 64 70 60 62 71 74 71 73 70 76 81 79 70 78 82
36 38 41 44 47 49 51 52 52 52 49 42 39 56 50 38 43 61 86 81 66 64 55 60 54 55 61 58 61 60 69 62 60 62 62 65 64 55 68 73 71 78 85 81 80
38 40 43 45 47 48 49 50 51 50 53 54 42 37 64 41 54 58 56 64 61 58 64 64 62 59 62 68 62 67 62 59 59 59 58 59 53 56 58 67 69 75 73 71 79
38 41 45 46 47 46 47 48 49 45 46 51 53 44 48 64 64 63 68 62 58 59 73 63 74 63 69 65 62 67 65 59 59 57 48 47 47 54 62 59 60 60 67 78 80
40 42 44 47 49 47 46 47 46 43 44 43 47 53 58 64 49 82 72 62 64 62 70 73 66 61 66 64 67 65 62 60 58 51 46 47 49 56 47 52 55 71 75 74 77
42 42 43 46 47 44 45 45 47 45 44 45 43 46 71 63 57 87 71 62 60 58 62 61 68 66 63 65 62 62 67 63 49 52 46 48 49 37 42 64 70 69 63 60 57
42 42 44 45 39 42 44 44 47 48 47 45 43 47 55 50 62 87 71 62 61 57 58 57 60 64 71 59 63 69 62 79 57 47 41 49 50 52 57 72 66 59 49 46 48
43 44 44 41 43 43 44 42 43 46 49 45 48 44 58 49 70 86 67 64 56 59 61 57 57 71 74 74 74 74 85 77 66 45 45 44 59 53 70 62 52 49 49 50 53
45 45 48 45 45 46 45 45 52 39 38 36 59 47 60 58 56 80 67 63 62 56 58 66 66 81 87 91 97 93 87 74 65 50 44 44 43 56 58 50 46 47 52 56 60
47 48 48 48 46 44 41 38 37 45 61 56 58 55 52 52 49 87 73 55 63 68 74 70 86 97 88 78 75 76 76 69 56 44 57 44 38 31 28 20 33 47 56 61 65
50 49 44 48 49 45 40 42 38 37 45 49 52 59 51 52 59 93 80 66 74 85 72 73 91 80 71 70 79 77 76 68 52 47 45 37 29 17 31 26 22 15 27 63 70
43 42 39 43 48 50 45 42 38 35 39 47 56 59 61 55 65 86 84 63 75 83 81 82 80 72 73 79 90 86 67 70 61 55 36 38 31 30 26 24 21 18 24 11 39
36 42 48 40 43 44 45 38 35 35 37 56 57 59 61 51 63 72 77 62 71 78 74 73 73 75 79 82 89 89 67 66 59 42 47 46 37 25 29 27 26 26 23 20 34
40 49 51 50 44 46 40 34 34 36 46 54 53 46 57 66 57 77 70 62 77 69 72 82 79 81 86 86 82 75 71 64 47 34 40 41 37 27 29 35 40 40 36 33 41
44 52 45 46 49 43 38 35 36 46 52 49 51 61 61 66 61 65 72 69 58 64 74 75 62 68 75 76 73 76 76 59 43 36 45 41 45 27 33 40 44 45 48 41 77
41 48 51 44 46 40 38 38 47 59 48 55 56 62 61 69 64 73 75 90 92 93 96 82 74 68 75 86 70 84 91 86 70 56 48 38 34 28 39 47 48 53 58 93 77
39 40 50 48 42 40 39 44 56 48 49 50 55 55 63 72 64 70 71 79 83 83 80 96 96 81 80 84 82 82 83 86 87 67 48 32 37 42 44 53 53 64 61 74 61
36 39 44 50 40 39 42 56 48 46 47 55 55 59 62 64 66 68 75 72 73 81 90 90 85 66 71 73 71 80 85 64 65 47 43 35 35 26 42 54 69 77 63 66 67
38 37 44 45 38 40 47 46 43 43 47 51 63 61 65 69 72 72 76 62 69 68 66 72 87 69 72 65 67 69 62 78 69 70 62 47 36 30 47 74 106 69 70 75 76
38 38 42 39 38 46 48 44 41 42 46 52 56 58 58 66 67 64 69 58 62 66 63 67 71 81 71 77 81 75 75 69 61 49 53 57 45 46 50 78 89 79 79 81 76
38 41 42 35 44 45 45 42 41 41 44 47 50 53 57 62 61 60 66 59 54 61 71 62 68 90 82 66 59 63 71 67 75 63 38 38 43 42 68 76 77 76 86 84 77
41 40 38 36 43 44 38 41 40 42 43 49 51 52 53 60 62 55 57 54 51 61 64 63 76 101 89 74 65 72 68 60 56 45 42 44 45 52 71 76 71 84 87 82 75
39 41 43 42 41 39 39 42 43 41 43 46 50 50 57 58 48 56 59 55 54 53 51 52 65 75 89 79 71 76 71 62 56 61 46 40 66 69 72 75 82 88 86 83 76
42 38 39 43 44 40 40 41 45 48 42 42 50 48 55 61 58 56 56 58 52 52 53 57 75 71 66 64 59 65 70 67 62 53 56 58 54 63 69 79 86 90 88 89 79
39 38 39 40 36 39 41 42 43 45 42 48 51 53 46 54 52 62 58 58 56 52 58 55 75 75 82 74 69 69 68 65 62 64 51 46 51 54 69 74 84 91 93 91 77
33 34 36 36 36 40 41 41 42 44 41 44 48 52 48 43 43 42 41 40 40 51 59 62 71 84 89 81 73 82 74 67 74 67 52 57 53 67 74 81 89 92 85 82 87
Wind_Direction
342 349 356 13 28 30 32 36 43 59 69 69 63 55 56 53 20 8 5 5 8 359 6 8 14 16 15 7 2 356 336 329 327 326 322 322 315 315 310 301 297 292 288 286 291
342 350 2 12 29 26 25 25 26 37 49 60 59 52 58 60 50 8 7 357 10 7 14 12 12 11 6 1 359 353 339 336 338 333 325 322 318 315 310 304 298 293 292 291 292
345 350 356 6 17 25 25 22 21 25 37 54 57 34 47 59 43 22 341 3 13 13 18 16 15 12 6 6 1 355 344 344 338 335 333 329 324 324 315 307 303 296 295 293 290
347 351 355 0 14 24 23 19 22 31 40 41 56 60 31 50 25 20 15 15 17 21 19 15 14 10 8 2 2 353 353 348 345 343 340 335 334 326 318 311 308 303 298 295 294
345 348 354 356 3 27 23 17 23 40 44 36 42 51 43 27 24 17 14 18 24 25 19 18 15 14 7 5 3 359 354 351 347 346 344 342 336 331 322 320 318 315 307 297 293
342 343 345 350 2 20 23 19 35 47 44 47 43 43 35 22 33 8 13 23 24 25 23 23 17 19 12 8 5 358 356 351 353 353 347 344 341 334 337 334 324 314 311 305 299
340 337 334 342 350 26 33 36 39 47 51 51 51 41 23 28 29 8 19 27 27 27 24 24 22 18 11 7 6 3 358 356 2 358 354 351 344 348 340 327 320 319 320 317 314
337 332 334 334 319 41 39 46 43 51 52 52 50 45 31 36 27 13 22 28 29 30 27 25 23 18 14 12 8 5 4 357 360 0 1 354 343 340 333 323 322 324 331 331 325
334 331 332 318 347 38 42 53 55 47 43 58 45 40 26 32 20 14 23 24 27 27 25 25 22 16 13 8 5 6 356 355 358 2 359 358 339 345 333 329 329 329 332 325 319
335 334 349 339 9 34 42 50 34 47 49 57 36 36 27 23 26 17 24 26 24 21 20 18 17 11 12 10 1 358 358 357 356 358 2 339 340 347 345 338 335 333 330 322 315
338 341 6 355 9 34 51 50 40 34 32 37 32 34 29 27 34 15 19 24 23 22 14 17 12 7 8 11 8 0 356 353 355 6 355 358 350 13 29 50 5 339 334 325 314
346 344 354 1 4 31 41 34 43 52 37 41 35 29 32 29 23 12 19 22 20 15 14 14 10 10 11 11 5 2 356 359 3 360 354 8 1 50 51 59 56 54 10 330 315
329 327 356 25 25 26 35 43 56 62 39 31 28 25 24 27 22 13 17 23 18 14 14 13 10 12 12 8 5 1 5 360 352 353 20 12 27 38 54 48 45 40 29 11 319
318 331 355 37 35 39 37 54 59 57 36 20 22 23 22 28 22 20 20 24 19 14 15 14 14 12 10 9 6 3 6 355 352 8 12 21 13 36 36 28 25 24 12 357 296
323 349 6 21 37 33 45 58 57 46 26 19 24 30 25 24 20 15 22 23 16 17 16 11 12 12 10 8 6 6 358 357 9 19 15 22 19 27 21 18 12 6 4 357 322
341 352 28 27 32 41 50 55 50 30 21 23 22 16 19 20 21 17 20 25 24 19 17 15 18 18 12 7 11 5 4 16 21 24 15 21 19 18 17 9 3 2 358 331 303
5 1 16 31 28 42 48 43 26 20 22 18 18 15 17 14 17 17 17 18 17 11 11 11 15 17 14 9 16 14 13 13 15 14 13 18 16 8 4 0 1 358 353 308 305
6 15 15 23 33 39 40 29 17 22 22 20 16 16 16 14 16 16 17 16 20 17 11 11 8 13 14 15 11 16 20 18 10 9 360 1 16 13 6 1 2 355 338 308 319
12 11 16 13 29 34 29 14 22 22 20 14 15 15 15 16 14 15 17 17 19 18 14 10 10 16 18 17 20 14 17 20 12 13 14 19 11 353 21 7 357 350 324 326 327
3 9 10 13 28 28 21 22 25 25 21 19 14 16 12 11 12 14 15 20 18 19 19 14 8 16 15 20 23 21 22 15 17 14 13 9 2 10 7 360 347 336 334 332 336
1 1 6 19 25 16 14 20 24 24 22 19 15 13 13 10 11 13 14 18 19 18 20 17 15 13 13 17 13 17 17 19 17 19 15 8 15 15 3 354 317 342 339 334 326
359 353 3 22 4 12 13 20 23 22 22 19 17 15 13 11 11 14 12 15 20 18 14 21 14 7 12 17 24 22 18 18 14 15 8 359 357 12 1 344 344 336 335 337 333
355 355 11 16 2 7 18 17 20 18 17 15 14 15 15 12 11 14 14 17 18 14 16 20 15 8 13 19 21 15 14 14 12 9 3 359 356 350 335 341 340 334 336 335 330
357 352 355 6 10 11 12 10 12 16 15 16 13 15 12 12 18 12 11 16 15 17 22 22 15 12 6 1 2 3 5 8 10 9 358 342 315 321 332 336 332 336 337 334 335
353 353 354 350 357 7 9 8 7 8 13 15 11 11 11 10 11 12 12 10 18 22 22 17 9 9 2 359 4 6 10 12 15 7 359 336 330 332 341 331 334 338 336 339 336
345 350 353 353 2 0 359 0 3 6 10 7 8 9 12 9 9 5 9 11 14 19 14 19 9 9 9 17 15 12 18 19 12 1 349 344 332 355 335 337 341 344 345 343 333
352 358 352 354 355 353 355 360 0 4 5 5 6 7 7 7 8 6 4 6 7 9 13 14 11 8 11 11 14 17 16 16 4 0 358 1 349 344 338 346 347 344 344 343 339